FW2347 Weather Reports


Display with metric or nautical units.
time (UTC)temp
F
wind
direction
speed
MPH
gust
MPH
rain 1hr
in
rain 24hr
in
rain mn
in
humidity
%
barometer
mb
20260902234548 64 360 0.0 0.0 0.00 0.00 0.00 72 1020.8
20260902233031 64 5 0.0 0.0 0.00 0.00 0.00 72 1020.7
20260902231507 64 5 0.0 0.0 0.00 0.00 0.00 73 1020.7
20260902230050 64 0.0 0.0 0.00 0.00 0.00 73 1020.6
20260902224512 64 0.0 0.0 0.00 0.00 0.00 73 1020.5
20260902223103 65 0.0 0.0 0.00 0.00 0.00 73 1020.5
20260902221546 65 360 0.0 0.0 0.00 0.00 0.00 73 1020.4
20260902220035 65 360 0.0 0.0 0.00 0.00 0.00 73 1020.4
20260902214519 66 5 0.0 0.0 0.00 0.00 0.00 72 1020.4
20260902213001 67 360 0.0 0.0 0.00 0.00 0.00 72 1020.3
20260902211544 67 360 0.0 0.0 0.00 0.00 0.00 71 1020.3
20260902210034 68 0.0 0.0 0.00 0.00 0.00 70 1020.2
20260902204525 68 5 0.0 0.0 0.00 0.00 0.00 69 1020.1
20260902203014 70 0.0 0.0 0.00 0.00 0.00 68 1020.0
20260902201505 71 0.0 0.0 0.00 0.00 0.00 67 1019.7
20260902194552 73 5 0.0 0.0 0.00 0.00 0.00 64 1019.6
20260902193035 75 0.0 0.0 0.00 0.00 0.00 61 1019.4
20260902191534 76 5 0.0 0.0 0.00 0.00 0.00 60 1019.1
20260902190020 77 360 0.0 0.0 0.00 0.00 0.00 58 1018.9
20260902184508 79 5 0.0 0.0 0.00 0.00 0.00 56 1018.6
20260902183005 79 5 0.0 0.0 0.00 0.00 0.00 54 1018.3
20260902181601 80 5 0.0 0.0 0.00 0.00 0.00 53 1018.0
20260902180105 82 0.0 0.0 0.00 0.00 0.00 50 1017.7
20260902174605 83 5 0.0 0.0 0.00 0.00 0.00 49 1017.6
20260902173100 84 5 0.0 0.0 0.00 0.00 0.00 48 1017.3
20260902171553 84 5 0.0 0.0 0.00 0.00 0.00 47 1017.2
20260902170041 85 5 0.0 0.0 0.00 0.00 0.00 45 1017.1
20260902164525 86 5 0.0 0.0 0.00 0.00 0.00 44 1017.0
20260902163010 87 360 0.0 0.0 0.00 0.00 0.00 42 1017.0
20260902161504 88 5 0.0 0.0 0.00 0.00 0.00 42 1017.0
20260902160106 87 360 0.0 0.0 0.00 0.00 0.00 41 1017.0
20260902154542 89 360 0.0 0.0 0.00 0.00 0.00 39 1017.2
20260902153045 89 360 0.0 0.0 0.00 0.00 0.00 39 1017.2
20260902151530 90 5 0.0 0.0 0.00 0.00 0.00 38 1017.2
20260902150025 89 5 0.0 0.0 0.00 0.00 0.00 38 1017.3
20260902144507 90 0.0 0.0 0.00 0.00 0.00 37 1017.4
20260902143106 91 360 0.0 0.0 0.00 0.00 0.00 36 1017.4
20260902141537 90 5 0.0 0.0 0.00 0.00 0.00 37 1017.6
20260902140019 91 0.0 0.0 0.00 0.00 0.00 38 1017.6
20260902134519 90 5 0.0 0.0 0.00 0.00 0.00 38 1017.6
20260902133011 90 360 0.0 0.0 0.00 0.00 0.00 39 1017.7
20260902131501 91 0.0 0.0 0.00 0.00 0.00 40 1017.8
20260902124542 91 0.0 0.0 0.00 0.00 0.00 41 1017.9
20260902123038 90 360 0.0 0.0 0.00 0.00 0.00 41 1018.1
20260902121531 89 0.0 0.0 0.00 0.00 0.00 43 1018.2
20260902120024 89 0.0 0.0 0.00 0.00 0.00 43 1018.3
20260902114505 89 360 0.0 0.0 0.00 0.00 0.00 45 1018.4
20260902113100 89 0.0 0.0 0.00 0.00 0.00 45 1018.4
20260902111555 87 360 0.0 0.0 0.00 0.00 0.00 48 1018.7
20260902110044 87 5 0.0 0.0 0.00 0.00 0.00 49 1018.7
20260902104546 86 360 0.0 0.0 0.00 0.00 0.00 49 1018.9
20260902103015 85 0.0 0.0 0.00 0.00 0.00 51 1019.1
20260902101511 86 360 0.0 0.0 0.00 0.00 0.00 52 1019.2
20260902100130 83 0.0 0.0 0.00 0.00 0.00 54 1019.3
20260902094557 84 360 0.0 0.0 0.00 0.00 0.00 55 1019.5
20260902093039 83 360 0.0 0.0 0.00 0.00 0.00 56 1019.4
20260902091525 82 360 0.0 0.0 0.00 0.00 0.00 59 1019.3
20260902090015 80 0.0 0.0 0.00 0.00 0.00 64 1019.4
20260902084607 79 5 0.0 0.0 0.00 0.00 0.00 66 1019.3
20260902083103 78 0.0 0.0 0.00 0.00 0.00 68 1019.3
20260902081556 76 360 0.0 0.0 0.00 0.00 0.00 69 1019.4
20260902080023 75 360 0.0 0.0 0.00 0.00 0.00 71 1019.4
20260902074506 75 5 0.0 0.0 0.00 0.00 0.00 71 1019.3
20260902073101 73 5 0.0 0.0 0.00 0.00 0.00 70 1019.4
20260902071558 71 360 0.0 0.0 0.00 0.00 0.00 59 1019.5
20260902070019 68 360 0.0 0.0 0.00 0.00 0.00 34 1019.5
20260902064511 66 0.0 0.0 0.00 0.00 0.00 14 1019.4
20260902063117 62 0.0 0.0 0.00 0.00 0.00 13 1019.3
20260902060033 60 0.0 0.0 0.00 0.00 0.00 13 1019.0
20260902054524 61 360 0.0 0.0 0.00 0.00 0.00 12 1018.8
20260902053004 60 5 0.0 0.0 0.00 0.00 0.00 14 1018.7
20260902051604 60 360 0.0 0.0 0.00 0.00 0.00 15 1018.6
20260902050025 60 0.0 0.0 0.00 0.00 0.00 16 1018.5
20260902044506 61 360 0.0 0.0 0.00 0.00 0.00 15 1018.4
20260902043110 61 0.0 0.0 0.00 0.00 0.00 15 1018.5
20260902041544 60 5 0.0 0.0 0.00 0.00 0.00 17 1018.5
20260902040033 61 5 0.0 0.0 0.00 0.00 0.00 18 1018.5
20260902034510 61 360 0.0 0.0 0.00 0.00 0.00 19 1018.6
20260902033104 61 360 0.0 0.0 0.00 0.00 0.00 21 1018.7
20260902031545 61 5 0.0 0.0 0.00 0.00 0.00 22 1018.7
20260902030037 61 5 0.0 0.0 0.00 0.00 0.00 24 1018.6
20260902024537 62 0.0 0.0 0.00 0.00 0.00 25 1018.7
20260902023013 62 360 0.0 0.0 0.00 0.00 0.00 26 1018.7
20260902021520 61 360 0.0 0.0 0.00 0.00 0.00 29 1018.6
20260902020010 62 5 0.0 0.0 0.00 0.00 0.00 32 1018.5
20260902014554 62 5 0.0 0.0 0.00 0.00 0.00 31 1018.6
20260902013040 62 360 0.0 0.0 0.00 0.00 0.00 35 1018.8
20260902011532 62 360 0.0 0.0 0.00 0.00 0.00 40 1018.6
20260902010027 62 360 0.0 0.0 0.00 0.00 0.00 43 1018.7
20260902004523 63 0.0 0.0 0.00 0.00 0.00 45 1018.8
20260902003009 63 0.0 0.0 0.00 0.00 0.00 45 1018.6
20260902001514 63 5 0.0 0.0 0.00 0.00 0.00 45 1018.6
20260902000101 63 5 0.0 0.0 0.00 0.00 0.00 51 1018.5